CWOP Weather Reports


time (UTC)temp
C
wind
direction
speed
KPH
gust
KPH
rain 1hr
cm
rain 24hr
cm
rain mn
cm
humidity
%
barometer
mb
20260505224010 22 202 8.0 16.1 0.00 0.00 0.00 42 1014.9
20260505223511 22 184 9.7 16.1 0.00 0.00 0.00 39 1014.7
20260505223028 22 164 9.7 16.1 0.00 0.00 0.00 39 1014.7
20260505222510 22 174 6.4 14.5 0.00 0.00 0.00 40 1014.8
20260505222007 22 203 8.0 14.5 0.00 0.00 0.00 40 1014.7
20260505221521 22 161 4.8 17.7 0.00 0.00 0.00 41 1014.6
20260505221008 23 183 6.4 24.1 0.00 0.00 0.00 39 1014.6
20260505220508 23 240 9.7 24.1 0.00 0.00 0.00 38 1014.6
20260505220024 23 192 8.0 19.3 0.00 0.00 0.00 38 1014.6
20260505215511 23 156 9.7 19.3 0.00 0.00 0.00 38 1014.4
20260505215012 23 118 3.2 17.7 0.00 0.00 0.00 39 1014.3
20260505214517 23 180 6.4 17.7 0.00 0.00 0.00 39 1014.3
20260505214007 23 163 8.0 17.7 0.00 0.00 0.00 38 1014.3
20260505213509 24 183 6.4 16.1 0.00 0.00 0.00 38 1014.3
20260505213024 24 188 6.4 16.1 0.00 0.00 0.00 39 1014.3
20260505212510 24 150 6.4 24.1 0.00 0.00 0.00 40 1014.3
20260505212013 24 154 9.7 24.1 0.00 0.00 0.00 37 1014.3
20260505211529 23 223 11.3 25.7 0.00 0.00 0.00 36 1014.2
20260505211010 23 163 9.7 25.7 0.00 0.00 0.00 36 1014.3
20260505210506 23 237 8.0 24.1 0.00 0.00 0.00 35 1014.3
20260505210016 23 225 11.3 19.3 0.00 0.00 0.00 36 1014.3
20260505205506 23 155 8.0 24.1 0.00 0.00 0.00 37 1014.3
20260505205009 23 127 8.0 24.1 0.00 0.00 0.00 39 1014.2
20260505204536 23 126 8.0 27.4 0.00 0.00 0.00 37 1014.2
20260505204009 23 91 6.4 27.4 0.00 0.00 0.00 41 1014.3
20260505203514 23 126 6.4 22.5 0.00 0.00 0.00 42 1014.3
20260505203026 23 136 9.7 30.6 0.00 0.00 0.00 43 1014.4
20260505202507 23 89 9.7 30.6 0.00 0.00 0.00 40 1014.4
20260505202007 23 222 6.4 22.5 0.00 0.00 0.00 39 1014.4
20260505201524 23 178 8.0 22.5 0.00 0.00 0.00 41 1014.4
20260505201011 23 79 11.3 22.5 0.00 0.00 0.00 38 1014.4
20260505200512 23 173 9.7 24.1 0.00 0.00 0.00 40 1014.5
20260505200026 23 184 12.9 24.1 0.00 0.00 0.00 40 1014.6
20260505195507 23 246 3.2 22.5 0.00 0.00 0.00 43 1014.6
20260505195008 23 178 8.0 22.5 0.00 0.00 0.00 41 1014.5
20260505194517 24 103 6.4 24.1 0.00 0.00 0.00 40 1014.5
20260505194011 24 165 11.3 24.1 0.00 0.00 0.00 41 1014.6
20260505193509 23 166 3.2 32.2 0.00 0.00 0.00 43 1014.8
20260505193025 23 189 4.8 32.2 0.00 0.00 0.00 40 1015.0
20260505193015 23 185 6.4 32.2 0.00 0.00 0.00 40 1015.0
20260505192504 23 109 4.8 20.9 0.00 0.00 0.00 41 1015.1
20260505192003 23 113 12.9 20.9 0.00 0.00 0.00 39 1015.3
20260505191507 23 117 8.0 25.7 0.00 0.00 0.00 40 1015.3
20260505191004 23 178 12.9 25.7 0.00 0.00 0.00 39 1015.3
20260505190503 23 157 6.4 17.7 0.00 0.00 0.00 42 1015.4
20260505190009 23 126 6.4 20.9 0.00 0.00 0.00 42 1015.6
20260505185503 23 178 8.0 20.9 0.00 0.00 0.00 38 1015.5
20260505185007 23 191 3.2 20.9 0.00 0.00 0.00 37 1015.5
20260505184507 23 197 11.3 37.0 0.00 0.00 0.00 36 1015.5
20260505184006 23 235 12.9 37.0 0.00 0.00 0.00 35 1015.7
20260505183508 23 213 9.7 19.3 0.00 0.00 0.00 32 1015.9
20260505183011 23 229 9.7 24.1 0.00 0.00 0.00 36 1015.8
20260505182505 23 192 11.3 19.3 0.00 0.00 0.00 35 1016.0
20260505182006 23 98 3.2 16.1 0.00 0.00 0.00 37 1015.9
20260505181504 23 227 3.2 19.3 0.00 0.00 0.00 40 1016.0
20260505181003 23 178 4.8 19.3 0.00 0.00 0.00 37 1016.1
20260505180504 23 190 11.3 19.3 0.00 0.00 0.00 41 1016.1
20260505180007 23 238 6.4 17.7 0.00 0.00 0.00 38 1016.1
20260505175503 23 115 8.0 14.5 0.00 0.00 0.00 37 1016.2
20260505175005 23 198 8.0 16.1 0.00 0.00 0.00 39 1016.3
20260505174510 22 190 11.3 17.7 0.00 0.00 0.00 39 1016.4
20260505174005 22 118 8.0 19.3 0.00 0.00 0.00 40 1016.4
20260505173501 23 108 8.0 16.1 0.00 0.00 0.00 41 1016.4
20260505173007 22 125 4.8 27.4 0.00 0.00 0.00 40 1016.4
20260505172502 22 144 6.4 27.4 0.00 0.00 0.00 41 1016.5
20260505172008 22 199 9.7 16.1 0.00 0.00 0.00 41 1016.5
20260505171513 22 198 4.8 17.7 0.00 0.00 0.00 40 1016.6
20260505171006 22 170 11.3 17.7 0.00 0.00 0.00 41 1016.6
20260505170508 22 157 9.7 17.7 0.00 0.00 0.00 41 1016.6
20260505170011 22 218 3.2 17.7 0.00 0.00 0.00 40 1016.7
20260505165502 22 223 9.7 16.1 0.00 0.00 0.00 40 1016.8
20260505165003 22 190 6.4 14.5 0.00 0.00 0.00 40 1016.9
20260505164508 22 158 6.4 12.9 0.00 0.00 0.00 41 1016.8
20260505164006 22 202 6.4 12.9 0.00 0.00 0.00 41 1016.9
20260505163507 22 192 6.4 9.7 0.00 0.00 0.00 44 1016.8
20260505163016 22 191 3.2 11.3 0.00 0.00 0.00 40 1016.7
20260505162505 22 96 4.8 11.3 0.00 0.00 0.00 42 1016.7
20260505162006 22 190 6.4 17.7 0.00 0.00 0.00 43 1016.7
20260505161504 22 218 11.3 17.7 0.00 0.00 0.00 44 1016.7
20260505161002 22 213 8.0 14.5 0.00 0.00 0.00 46 1016.6
20260505160505 22 89 6.4 11.3 0.00 0.00 0.00 44 1016.6
20260505153008 21 262 4.8 11.3 0.00 0.00 0.00 47 1017.0
20260505152505 21 126 1.6 6.4 0.00 0.00 0.00 45 1017.1
20260505152012 20 194 3.2 8.0 0.00 0.00 0.00 46 1017.1
20260505151516 21 213 4.8 6.4 0.00 0.00 0.00 48 1017.1
20260505151009 21 302 1.6 3.2 0.00 0.00 0.00 47 1017.0
20260505150507 21 312 1.6 3.2 0.00 0.00 0.00 46 1017.0
20260505140507 16 115 3.2 6.4 0.00 0.00 0.00 71 1017.4
20260505125008 13 38 0.0 4.8 0.00 0.00 0.00 80 1016.9
20260505124518 13 68 0.0 4.8 0.00 0.00 0.00 82 1016.9
20260505124006 13 151 0.0 3.2 0.00 0.00 0.00 82 1016.8
20260505123508 12 40 0.0 3.2 0.00 0.00 0.00 83 1016.8
20260505123018 12 57 0.0 3.2 0.00 0.00 0.00 84 1016.7
20260505122510 12 65 0.0 3.2 0.00 0.00 0.00 85 1016.7
20260505122007 11 65 0.0 3.2 0.00 0.00 0.00 86 1016.7
20260505121524 11 40 0.0 3.2 0.00 0.00 0.00 88 1016.7
20260505121003 10 26 0.0 0.0 0.00 0.00 0.00 89 1016.7
20260505120508 10 42 0.0 0.0 0.00 0.00 0.00 89 1016.7
20260505120020 9 54 0.0 0.0 0.00 0.00 0.00 92 1016.7
20260505115507 8 54 0.0 3.2 0.00 0.00 0.00 93 1016.6
20260505115012 8 54 0.0 3.2 0.00 0.00 0.00 94 1016.4
20260505114519 7 113 0.0 3.2 0.00 0.00 0.00 95 1016.4
20260505114009 7 66 0.0 3.2 0.00 0.00 0.00 95 1016.3
20260505113503 7 97 0.0 3.2 0.00 0.00 0.00 95 1016.3
20260505113012 6 97 0.0 1.6 0.00 0.00 0.00 95 1016.3
20260505112507 6 97 0.0 1.6 0.00 0.00 0.00 94 1016.3
20260505112007 6 126 0.0 0.0 0.00 0.00 0.00 94 1016.3
20260505111529 6 126 0.0 3.2 0.00 0.00 0.00 94 1016.3
20260505111006 5 126 0.0 3.2 0.00 0.00 0.00 94 1016.2
20260505110508 5 338 0.0 3.2 0.00 0.00 0.00 93 1016.2
20260505102006 6 38 0.0 3.2 0.00 0.00 0.00 92 1016.3
20260505101513 6 38 0.0 3.2 0.00 0.00 0.00 93 1016.2
20260505101008 6 38 1.6 3.2 0.00 0.00 0.00 93 1016.1
20260505100507 6 38 0.0 3.2 0.00 0.00 0.00 93 1016.1
20260505100011 6 59 0.0 3.2 0.00 0.00 0.00 92 1016.1
20260505095503 6 288 0.0 3.2 0.00 0.00 0.00 92 1016.1
20260505095005 6 15 1.6 3.2 0.00 0.00 0.00 93 1016.0
20260505094513 6 36 1.6 3.2 0.00 0.00 0.00 92 1016.1
20260505094006 6 67 0.0 1.6 0.00 0.00 0.00 92 1016.1
20260505093507 6 128 0.0 3.2 0.00 0.00 0.00 93 1016.0
20260505093027 6 248 0.0 3.2 0.00 0.00 0.00 92 1016.1
20260505092508 6 62 1.6 3.2 0.00 0.00 0.00 92 1016.1
20260505092004 6 53 0.0 3.2 0.00 0.00 0.00 90 1016.2
20260505091513 6 53 0.0 3.2 0.00 0.00 0.00 92 1016.2
20260505091004 6 276 0.0 4.8 0.00 0.00 0.00 91 1016.3
20260505090504 6 45 3.2 4.8 0.00 0.00 0.00 92 1016.3
20260505090012 6 51 0.0 3.2 0.00 0.00 0.00 91 1016.3
20260505085507 6 44 0.0 3.2 0.00 0.00 0.00 90 1016.3
20260505085013 6 44 1.6 3.2 0.00 0.00 0.00 91 1016.2
20260505084524 6 63 0.0 3.2 0.00 0.00 0.00 91 1016.2
20260505084004 7 63 0.0 3.2 0.00 0.00 0.00 91 1016.2
20260505083509 7 136 0.0 3.2 0.00 0.00 0.00 91 1016.3
20260505083005 7 136 0.0 3.2 0.00 0.00 0.00 91 1016.1
20260505082503 7 60 1.6 3.2 0.00 0.00 0.00 91 1016.1
20260505082004 7 60 0.0 3.2 0.00 0.00 0.00 92 1016.2
20260505081517 7 96 0.0 3.2 0.00 0.00 0.00 92 1016.2
20260505081009 7 52 1.6 3.2 0.00 0.00 0.00 91 1016.2
20260505080508 7 349 0.0 4.8 0.00 0.00 0.00 90 1016.2
20260505080004 7 61 1.6 4.8 0.00 0.00 0.00 93 1016.2
20260505075504 7 184 3.2 4.8 0.00 0.00 0.00 92 1016.2
20260505075005 7 55 1.6 3.2 0.00 0.00 0.00 91 1016.1
20260505074511 7 56 0.0 3.2 0.00 0.00 0.00 90 1016.2
20260505074004 7 56 0.0 3.2 0.00 0.00 0.00 90 1016.1
20260505073505 7 56 0.0 3.2 0.00 0.00 0.00 90 1016.2
20260505073019 7 56 1.6 3.2 0.00 0.00 0.00 90 1016.2
20260505072508 7 275 0.0 3.2 0.00 0.00 0.00 89 1016.2
20260505072003 7 36 0.0 3.2 0.00 0.00 0.00 89 1016.2
20260505071504 7 36 0.0 1.6 0.00 0.00 0.00 89 1016.2
20260505071008 7 36 0.0 3.2 0.00 0.00 0.00 89 1016.2
20260505070506 7 36 1.6 3.2 0.00 0.00 0.00 89 1016.2
20260505070013 7 36 0.0 3.2 0.00 0.00 0.00 88 1016.2
20260505065507 7 36 0.0 3.2 0.00 0.00 0.00 88 1016.1
20260505065012 7 38 3.2 3.2 0.00 0.00 0.00 90 1016.1
20260505064523 7 61 0.0 0.0 0.00 0.00 0.00 89 1016.2
20260505064003 7 61 0.0 1.6 0.00 0.00 0.00 88 1016.1
20260505063504 7 61 0.0 3.2 0.00 0.00 0.00 87 1016.1
20260505063014 7 61 1.6 3.2 0.00 0.00 0.00 85 1016.1
20260505062506 8 55 1.6 3.2 0.00 0.00 0.00 87 1016.2
20260505062007 8 54 0.0 3.2 0.00 0.00 0.00 85 1016.2
20260505061522 8 54 0.0 3.2 0.00 0.00 0.00 87 1016.2
20260505061006 8 54 0.0 0.0 0.00 0.00 0.00 86 1016.2
20260505060511 8 54 0.0 0.0 0.00 0.00 0.00 85 1016.3
20260505060003 8 54 0.0 0.0 0.00 0.00 0.00 84 1016.3
20260505055503 8 54 0.0 0.0 0.00 0.00 0.00 85 1016.3
20260505055003 8 54 0.0 1.6 0.00 0.00 0.00 84 1016.3
20260505054514 8 54 0.0 3.2 0.00 0.00 0.00 83 1016.3
20260505054008 8 54 0.0 3.2 0.00 0.00 0.00 83 1016.4
20260505053510 8 54 0.0 3.2 0.00 0.00 0.00 81 1016.4
20260505053020 8 85 0.0 4.8 0.00 0.00 0.00 82 1016.3
20260505052508 9 86 3.2 4.8 0.00 0.00 0.00 81 1016.4
20260505052004 9 123 0.0 4.8 0.00 0.00 0.00 81 1016.3
20260505051508 9 82 1.6 3.2 0.00 0.00 0.00 81 1016.3
20260505051004 9 69 0.0 1.6 0.00 0.00 0.00 80 1016.3
20260505050504 10 69 0.0 3.2 0.00 0.00 0.00 81 1016.3
20260505041540 11 119 0.0 3.2 0.00 0.00 0.00 75 1016.3
20260505041007 11 123 0.0 3.2 0.00 0.00 0.00 76 1016.3
20260505040510 11 123 0.0 3.2 0.00 0.00 0.00 75 1016.3
20260505040027 11 155 0.0 3.2 0.00 0.00 0.00 75 1016.3
20260505035502 11 155 0.0 3.2 0.00 0.00 0.00 75 1016.3
20260505035007 11 121 1.6 3.2 0.00 0.00 0.00 75 1016.3
20260505034516 11 109 0.0 3.2 0.00 0.00 0.00 74 1016.4
20260505034007 11 109 0.0 3.2 0.00 0.00 0.00 74 1016.4
20260505033507 11 109 0.0 3.2 0.00 0.00 0.00 74 1016.4
20260505033024 11 109 1.6 3.2 0.00 0.00 0.00 74 1016.4
20260505032517 11 142 1.6 3.2 0.00 0.00 0.00 77 1016.4
20260505032011 11 94 0.0 3.2 0.00 0.00 0.00 75 1016.4
20260505031521 11 87 0.0 3.2 0.00 0.00 0.00 75 1016.5
20260505031004 12 87 0.0 3.2 0.00 0.00 0.00 75 1016.4
20260505030504 11 87 0.0 3.2 0.00 0.00 0.00 75 1016.5
20260505030019 11 92 0.0 0.0 0.00 0.00 0.00 75 1016.5
20260505025514 11 92 0.0 0.0 0.00 0.00 0.00 75 1016.5
20260505025010 11 92 0.0 0.0 0.00 0.00 0.00 75 1016.4
20260505024526 12 92 0.0 3.2 0.00 0.00 0.00 75 1016.4
20260505024010 12 92 0.0 3.2 0.00 0.00 0.00 74 1016.4
20260505023503 12 92 0.0 3.2 0.00 0.00 0.00 73 1016.3
20260505023015 12 107 1.6 4.8 0.00 0.00 0.00 73 1016.3
20260505022507 12 101 3.2 4.8 0.00 0.00 0.00 72 1016.3
20260505022007 12 103 3.2 4.8 0.00 0.00 0.00 72 1016.3
20260505021524 13 110 1.6 3.2 0.00 0.00 0.00 71 1016.3
20260505021008 13 96 1.6 4.8 0.00 0.00 0.00 69 1016.3
20260505020510 13 111 1.6 4.8 0.00 0.00 0.00 68 1016.2
20260505020033 13 111 1.6 4.8 0.00 0.00 0.00 68 1016.1
20260505015506 13 96 1.6 4.8 0.00 0.00 0.00 68 1016.1
20260505015005 13 105 1.6 3.2 0.00 0.00 0.00 67 1016.0
20260505014521 14 108 3.2 3.2 0.00 0.00 0.00 65 1015.9
20260505014007 15 112 3.2 3.2 0.00 0.00 0.00 63 1015.8
20260505013506 15 98 0.0 3.2 0.00 0.00 0.00 62 1015.7
20260505013027 15 98 0.0 0.0 0.00 0.00 0.00 62 1015.8
20260505012507 16 98 0.0 0.0 0.00 0.00 0.00 59 1015.7
20260505012010 16 98 0.0 3.2 0.00 0.00 0.00 60 1015.7
20260505011513 17 98 0.0 3.2 0.00 0.00 0.00 58 1015.7
20260505011006 17 119 0.0 3.2 0.00 0.00 0.00 56 1015.7
20260505010506 18 124 1.6 4.8 0.00 0.00 0.00 53 1015.6
20260505010022 18 160 0.0 6.4 0.00 0.00 0.00 52 1015.6
20260505005507 18 163 0.0 6.4 0.00 0.00 0.00 52 1015.5
20260505005011 18 189 3.2 6.4 0.00 0.00 0.00 51 1015.5
20260505004526 18 173 3.2 11.3 0.00 0.00 0.00 51 1015.5
20260505004008 19 173 1.6 11.3 0.00 0.00 0.00 51 1015.5
20260505003507 19 150 3.2 8.0 0.00 0.00 0.00 50 1015.3
20260505003013 19 113 3.2 8.0 0.00 0.00 0.00 51 1015.2
20260505002508 19 136 3.2 9.7 0.00 0.00 0.00 51 1015.2
20260505002007 19 119 3.2 9.7 0.00 0.00 0.00 51 1015.2
20260505001524 20 129 3.2 9.7 0.00 0.00 0.00 51 1015.1
20260505001010 20 110 1.6 8.0 0.00 0.00 0.00 51 1015.1
20260505000510 20 144 3.2 8.0 0.00 0.00 0.00 50 1015.1
20260505000031 20 63 3.2 8.0 0.00 0.00 0.00 49 1015.0
20260504235503 20 150 3.2 11.3 0.00 0.00 0.00 49 1014.9
20260504235007 20 122 3.2 11.3 0.00 0.00 0.00 49 1014.9
20260504234518 21 98 1.6 9.7 0.00 0.00 0.00 49 1014.8
20260504234010 21 120 1.6 9.7 0.00 0.00 0.00 47 1014.8
20260504233512 21 96 1.6 8.0 0.00 0.00 0.00 47 1014.8
20260504233027 21 111 4.8 11.3 0.00 0.00 0.00 46 1014.7
20260504232510 21 122 6.4 11.3 0.00 0.00 0.00 44 1014.7
20260504232011 21 155 3.2 14.5 0.00 0.00 0.00 46 1014.7
20260504231513 21 181 6.4 14.5 0.00 0.00 0.00 44 1014.7
20260504231007 21 155 4.8 11.3 0.00 0.00 0.00 46 1014.6
20260504230508 22 164 6.4 12.9 0.00 0.00 0.00 45 1014.6
20260504230025 22 189 4.8 12.9 0.00 0.00 0.00 46 1014.5
20260504225510 22 154 1.6 17.7 0.00 0.00 0.00 47 1014.6
20260504225009 22 113 8.0 17.7 0.00 0.00 0.00 45 1014.6
20260504224531 22 191 3.2 11.3 0.00 0.00 0.00 46 1014.6